Lake Superior Provincial Park, Ontario

Past 24 Hour Conditions

This table is a summary of hourly weather conditions for the past 24 hours. This summary includes the following parameters: temperature, humidity, dew point, wind speed and direction, air pressure, visibility and/or wind chill and humidex.
Date / Time
(EDT)
Conditions Temp (°C) Humidity (%) Dew Point (°C) Wind (km/h) Pressure (kPa) Visibility (km)
31 August 2014
6:00 N/A 13   96 12 ENE 5 101.1 N/A
5:00 N/A 13   96 13 NE 9 101.1 N/A
4:00 N/A 14 95 13 NE 6 101.1 N/A
3:00 N/A 14 95 13 NNE 6 101.0 N/A
2:00 N/A 14 95 14 NE 10 100.9 N/A
1:00 N/A 15 95 14 NE 5 100.9 N/A
00:00 N/A 15 96 14 NNE 8 100.9 N/A
30 August 2014
23:00 N/A 15 95 14 NE 9 100.9 N/A
22:00 N/A 15 95 14 NE 13 100.9 N/A
21:00 N/A 15 96 15 NE 9 100.8 N/A
20:00 N/A 16 96 15 NE 7 100.8 N/A
19:00 N/A 16 95 15 NE 11 100.8 N/A
18:00 N/A 16 95 15 NNE 6 100.7 N/A
17:00 N/A 17 95 16 NNE 6 100.8 N/A
16:00 N/A 18 95 17 NE 7 100.7 N/A
15:00 N/A 19 95 18 NNW 4 100.7 N/A
14:00 N/A 19 94 18 calm 100.7 N/A
13:00 N/A 20   92 18 calm 100.8 N/A
12:00 N/A 20   92 19 SSE 3 100.8 N/A
11:00 N/A 19 96 18 S 5 100.8 N/A
10:00 N/A 18 98 18 SSE 2 100.8 N/A
9:00 N/A 18 98 17 SSE 4 100.8 N/A
8:00 N/A 17 98 17 S 6 100.9 N/A
7:00 N/A 17 98 17 S 3 100.9 N/A
6:00 N/A 17 98 17 SSW 2 100.9 N/A
N/A
Not available
 ↑ 
Highest temperature
 ↓ 
Lowest temperature

If you require additional historical weather information, please visit Climate Data Online.